Observations for GROSSETO IT-AFB, Italy (LIRS)

LIRS 260455Z 06005KT CAVOK 19/17 Q1015  
LIRS 260455Z 06005KT CAVOK 19/17 Q1015 RMK SKC VIS MIN 9999 WIND THR03 06004KT WIND THR21 07004KT BLU
LIRS 260355Z 05003KT CAVOK 19/18 Q1015  
LIRS 260355Z 05003KT CAVOK 19/18 Q1015 RMK SKC VIS MIN 9999 WIND THR03 05004KT WIND THR21 06003KT BLU
LIRS 260255Z 06004KT CAVOK 19/18 Q1015  
LIRS 260255Z 06004KT CAVOK 19/18 Q1015 RMK SKC VIS MIN 9999 WIND THR03 05005KT WIND THR21 07003KT BLU
LIRS 260155Z 05002KT CAVOK 20/18 Q1016  
LIRS 260155Z 05002KT CAVOK 20/18 Q1016 RMK SKC VIS MIN 9999 WIND THR03 06003KT WIND THR21 02002KT BLU
LIRS 260055Z 01003KT CAVOK 21/20 Q1016  
LIRS 260055Z 01003KT CAVOK 21/20 Q1016 RMK SKC VIS MIN 9999 WIND THR03 02004KT WIND THR21 02003KT BLU
LIRS 252355Z 03005KT CAVOK 20/19 Q1016  
LIRS 252355Z 03005KT CAVOK 20/19 Q1016 RMK SKC VIS MIN 9999 WIND THR03 04006KT WIND THR21 06004KT BLU
LIRS 252255Z 02003KT CAVOK 21/19 Q1016  
LIRS 252255Z 02003KT CAVOK 21/19 Q1016 RMK SKC VIS MIN 9999 WIND THR03 03004KT WIND THR21 02003KT BLU
LIRS 252155Z 02003KT CAVOK 21/19 Q1016  
LIRS 252155Z 02003KT CAVOK 21/19 Q1016 RMK SKC VIS MIN 9999 WIND THR03 03004KT WIND THR21 01003KT BLU
LIRS 252055Z 36005KT CAVOK 22/20 Q1016  
LIRS 252055Z 36005KT CAVOK 22/20 Q1016 RMK SKC VIS MIN 9999 WIND THR03 01004KT WIND THR21 01004KT BLU
LIRS 251955Z 36005KT CAVOK 22/19 Q1016  
LIRS 251955Z 36005KT CAVOK 22/19 Q1016 RMK FEW FEW100 VIS MIN 9999 WIND THR03 36006KT WIND THR21 36003KT BLU
LIRS 251855Z 06006KT 9999 FEW030 24/18 Q1015
LIRS 251855Z 06006KT 9999 FEW030 24/18 Q1015 RMK SCT SCT100 VIS MIN 9999 WIND THR03 08005KT WIND THR21 07005KT BLU
LIRS 251755Z 03008KT 9999 FEW020CB 25/19 Q1015  
LIRS 251755Z 03008KT 9999 FEW020CB 25/19 Q1015 RMK SCT SCT090 VIS MIN 9999 WINDTHR03 04007KT WIND THR21 05007KT BLU
LIRS 251655Z 35012KT 9999 FEW015CB FEW020CB 28/20 Q1015 
LIRS 251655Z 35012KT 9999 FEW015CB FEW020CB 28/20 Q1015 RMK BKN SCT100 VIS MIN 9999NE WIND THR03 36010KT WIND THR21 35011KT BLU
LIRS 251555Z 24007KT 9999 VCTS FEW010CB FEW015CB SCT020 30/18 Q1015 
LIRS 251555Z 24007KT 9999 VCTS FEW010CB FEW015CB SCT020 30/18 Q1015 RMK BKN VISMIN 9999NE WIND THR03 24007KT WIND THR21 23007KT BLU
LIRS 251455Z 21008KT 9999 VCTS FEW020CB FEW022CB SCT030 31/18 Q1014 
LIRS 251455Z 21008KT 9999 VCTS FEW020CB FEW022CB SCT030 31/18 Q1014 RMK BKN VISMIN 9999 WIND THR03 23008KT WIND THR21 21009KT BLU
LIRS 251355Z 22013KT 9999 VCTS FEW020CB FEW022CB SCT030 30/19 Q1014 
LIRS 251355Z 22013KT 9999 VCTS FEW020CB FEW022CB SCT030 30/19 Q1014 RMK SCT VISMIN 9999 WIND THR03 24013KT WIND THR21 23013KT BLU
LIRS 251255Z 23012KT 9999 FEW020CB FEW025CB 30/18 Q1015 
LIRS 251255Z 23012KT 9999 FEW020CB FEW025CB 30/18 Q1015 RMK SCT VIS MIN 9999 WIND THR03 23012KT WIND THR21 24011KT BLU
LIRS 251155Z 24010KT 9999 FEW020CB FEW030TCU SCT040 31/19 Q1015 
LIRS 251155Z 24010KT 9999 FEW020CB FEW030TCU SCT040 31/19 Q1015 RMK SCT VIS MIN9999 WIND THR03 23010KT WIND THR21 23011KT BLU
LIRS 251055Z 28003KT 9999 FEW020CB 30/17 Q1016  
LIRS 251055Z 28003KT 9999 FEW020CB 30/17 Q1016 RMK SCT VIS MIN 9999 WIND THR03 24007KT WIND THR21 15002KT BLU
LIRS 250955Z 11002KT 9999 FEW030TCU 29/18 Q1016 
LIRS 250955Z 11002KT 9999 FEW030TCU 29/18 Q1016 RMK SCT SCT200 VIS MIN 9999 WIND THR03 13003KT WIND THR21 09004KT BLU
LIRS 250855Z 09005KT CAVOK 26/21 Q1016  
LIRS 250855Z 09005KT CAVOK 26/21 Q1016 RMK SCT FEW090 SCT200 VIS MIN 9999 WIND THR03 07005KT WIND THR21 10005KT BLU
LIRS 250755Z 07003KT CAVOK 26/20 Q1016  
LIRS 250755Z 07003KT CAVOK 26/20 Q1016 RMK SCT FEW080 SCT200 VIS MIN 9999 WIND THR03 07003KT WIND THR21 05002KT BLU
LIRS 250655Z 05004KT CAVOK 23/19 Q1016  
LIRS 250655Z 05004KT CAVOK 23/19 Q1016 RMK SCT SCT080 VIS MIN 9999 WIND THR03 07004KT WIND THR21 07003KT BLU
LIRS 250555Z 04006KT CAVOK 20/17 Q1015  
LIRS 250555Z 04006KT CAVOK 20/17 Q1015 RMK SCT SCT100 VIS MIN 9999 WIND THR03 04005KT WIND THR21 04005KT BLU
LIRS 250455Z 06002KT 9999 FEW040 19/17 Q1015
LIRS 250455Z 06002KT 9999 FEW040 19/17 Q1015 RMK SCT SCT090 VIS MIN 9999 WIND THR03 06002KT WIND THR21 06003KT BLU